Regional Weather Roundup
Issued by NWS

Home | Current Version | Previous Version | Graphics & Text | Print | Product List | Glossary Off
Versions: 1 2 3 4 5 6 7 8 9 10 11 12 13 14 15 16 17 18 19 20 21 22 23 24 25 26 27 28 29 30 31 32 33 34 35 36 37 38 39 40 41 42 43 44 45 46 47 48 49

000
ASUS43 KDMX 281107
RWRIA

WEATHER ROUNDUP FOR IOWA
NATIONAL WEATHER SERVICE DES MOINES IA
600 AM CDT TUE JUL 28 2015

NOTE: "FAIR" INDICATES FEW OR NO CLOUDS BELOW 12,000 FEET WITH NO
SIGNIFICANT WEATHER AND/OR OBSTRUCTIONS TO VISIBILITY.

* - THESE STATIONS ARE NOT NWS STATIONS...THUS NOT UNDER NWS
QUALITY CONTROL.  THEY ALSO DO NOT REPORT WEATHER SUCH
AS PRECIPITATION OR FOG.

IAZ001>003-012>014-020>022-031>034-043>046-281200-
   NORTHWEST IOWA

CITY           SKY/WX    TMP DP  RH WIND       PRES   REMARKS
CARROLL *      MOCLDY    72  70  94 SE12      29.80F
CHEROKEE *     TSTM      66  66 100 N10G18    29.89F
DENISON *      MOCLDY    73  72  94 SW16G24   29.80R
LE MARS *      LGT RAIN  68  68 100 E14       29.84R
ORANGE CITY *  RAIN      66  66 100 SE9       29.83F
SHELDON *      CLOUDY    68  66  94 SE13      29.85R
SIOUX CITY     TSTM      70  66  87 N5        29.83F FOG
SPENCER        TSTM      70  65  84 NW12      29.87F
STORM LAKE *   HVY RAIN  68  68 100 N20G39    29.89R VSB 3/4
$$

IAZ055>058-069>071-079>083-090>094-281200-
   SOUTHWEST IOWA

CITY           SKY/WX    TMP DP  RH WIND       PRES   REMARKS
ATLANTIC *     MOCLDY    73  72  94 S10       29.81F
AUDUBON *      CLEAR     73  70  88 S7        29.82F
CLARINDA *     CLEAR     75  72  88 S8        29.85R
COUNCIL BLFS * CLEAR     75  73  94 S12       29.79S
CRESTON *      CLEAR     70  70 100 SE8       29.86S
HARLAN  *      CLEAR     73  73 100 S9        29.83F
LAMONI         CLEAR     72  70  93 S9        29.87F
RED OAK *      CLEAR     75  73  94 S9        29.81S
SHENANDOAH *     N/A     77  73  88 SE12G17   29.81S
$$

IAZ047>049-059>061-072>074-084-281200-
   CENTRAL IOWA

CITY           SKY/WX    TMP DP  RH WIND       PRES   REMARKS
AMES           PTCLDY    71  70  96 SE9       29.85S FOG
ANKENY *       CLEAR     72  72 100 SE5       29.85F
CHARITON *     PTCLDY    73  70  88 S8G16     29.87F
DES MOINES     PTCLDY    74  69  85 S10       29.84F
GRINNELL*      CLOUDY    73  70  88 SE10G16   29.90F
KNOXVILLE *    PTCLDY    72  70  94 SE6       29.87S
MARSHALLTOWN   CLOUDY    74  72  93 SE12      29.88R FOG
PELLA *        CLEAR     72  72 100 SE8       29.89S FOG
PERRY *          N/A     72  70  94 S9        29.83F
$$

IAZ004>006-015-016-023>025-035-036-281200-
   NORTH CENTRAL IOWA

CITY           SKY/WX    TMP DP  RH WIND       PRES   REMARKS
ALGONA *       MOCLDY    72  70  94 S14       29.85R
CLARION *      PTCLDY    73  70  88 SE12      29.86R
ESTHERVILLE    HVY RAIN  70  69  97 SW5       29.90R FOG
FORT DODGE *   PTCLDY    73  66  78 S8        29.84S
MASON CITY     CLOUDY    71  70  96 SE8       29.91S
FOREST CITY *  CLOUDY    70  70 100 E9        29.87R
IOWA FALLS *   CLOUDY    73  72  94 SE8       29.89R FOG
$$

IAZ007>011-017>019-026>030-037>042-050>054-066-281200-
   NORTHEAST IOWA

CITY           SKY/WX    TMP DP  RH WIND       PRES   REMARKS
CEDAR RAPIDS   MOCLDY    74  73  97 S7        29.91S THUNDER
CHARLES CITY * LGT RAIN  72  72 100 SE12G17   29.91F
CLINTON *      CLEAR     70  64  83 SE6       29.98R
DECORAH *      CLEAR     70  70 100 S9        29.93R
DUBUQUE        CLEAR     69  65  86 S8        29.97R
MONTICELLO *   CLEAR     70  68  94 SE7       29.94R
OELWEIN *        N/A     72  72 100 S8        29.95R FOG
WATERLOO       CLOUDY    73  72  96 SE10      29.89S
$$

IAZ064-065-067-068-078-281200-
   EAST CENTRAL IOWA

CITY           SKY/WX    TMP DP  RH WIND       PRES   REMARKS
DAVENPORT      PTCLDY    70  68  93 SE5       29.96R
IOWA CITY      MOCLDY    73  71  93 SE7       29.93S
MT. PLEASANT * PTCLDY    75  72  88 SE6       29.93R FOG
MUSCATINE *    MOCLDY    72  70  94 CALM      29.93S
QUAD CITIES    CLEAR     70  67  90 E5        29.94S
$$

IAZ062-063-075>077-085>089-095>099-281200-
   SOUTHEAST IOWA

CITY           SKY/WX    TMP DP  RH WIND       PRES   REMARKS
BURLINGTON     PTCLDY    74  74 100 SE6       29.93R FOG
FAIRFIELD *    PTCLDY    73  72  94 SE9       29.91S FOG
FORT MADISON * CLEAR     72  72 100 SE6       29.94R
KEOKUK *       MOCLDY    72  72 100 CALM      29.91F
OSKALOOSA *      N/A     72  70  94 SE6       29.90S FOG
CENTERVILLE *  PTCLDY    72  70  94 SE6       29.92S
OTTUMWA        CLEAR     72  71  97 S8        29.88S
WASHINGTON *   MOCLDY    73  73 100 S6        29.93S FOG
$$

ABBREVIATIONS USED IN REMARKS
   TC - TEMPERATURES IN CELSIUS
  WCI - WIND CHILL INDEX
   HX - HEAT INDEX
  VSB - VISIBILITY
$$




USA.gov is the U.S. government's official web portal to all federal, state and local government web resources and services.